Route Details
Sealth
Time Location Temp F Dew point F Wind Dir Wind Speed kts
10:29 PM 47.5107 -122.4632 -999 -999 123 5
10:28 PM 47.5107 -122.4632 -999 -999 124 7
10:27 PM 47.5107 -122.4632 -999 -999 127 5
10:26 PM 47.5107 -122.4632 -999 -999 131 5
10:25 PM 47.5107 -122.4632 -999 -999 131 5
10:24 PM 47.5107 -122.4632 -999 -999 171 6
10:23 PM 47.5107 -122.4632 -999 -999 127 9
10:22 PM 47.5107 -122.4632 -999 -999 129 8
10:21 PM 47.5107 -122.4632 -999 -999 138 5
10:20 PM 47.5107 -122.4632 -999 -999 126 5
10:19 PM 47.5107 -122.4632 -999 -999 137 4
10:18 PM 47.5107 -122.4632 -999 -999 115 5
10:17 PM 47.5107 -122.4632 -999 -999 114 7
10:16 PM 47.5107 -122.4632 -999 -999 130 5
10:15 PM 47.5107 -122.4632 -999 -999 143 7
10:14 PM 47.5107 -122.4632 -999 -999 145 7
10:13 PM 47.5107 -122.4632 -999 -999 134 5
10:12 PM 47.5107 -122.4632 -999 -999 132 7
10:11 PM 47.5107 -122.4632 -999 -999 141 8
10:10 PM 47.5107 -122.4632 -999 -999 130 7
10:09 PM 47.5107 -122.4632 -999 -999 132 8
10:08 PM 47.5107 -122.4632 -999 -999 123 9
10:07 PM 47.5107 -122.4632 -999 -999 121 10
10:06 PM 47.5107 -122.4632 -999 -999 131 9
10:05 PM 47.5107 -122.4632 -999 -999 151 9
10:04 PM 47.5107 -122.4632 -999 -999 133 8
10:03 PM 47.5107 -122.4632 -999 -999 121 8
10:02 PM 47.5107 -122.4632 -999 -999 145 9
10:01 PM 47.5107 -122.4632 -999 -999 111 8
10:00 PM 47.5107 -122.4632 -999 -999 149 9
9:59 PM 47.5107 -122.4632 -999 -999 132 9
9:58 PM 47.5107 -122.4632 -999 -999 146 9
9:57 PM 47.5107 -122.4632 -999 -999 130 9
9:56 PM 47.5107 -122.4632 -999 -999 118 8
9:55 PM 47.5107 -122.4632 -999 -999 142 9
9:54 PM 47.5107 -122.4632 -999 -999 122 9
9:53 PM 47.5107 -122.4632 -999 -999 138 9
9:52 PM 47.5107 -122.4632 -999 -999 145 7
9:51 PM 47.5107 -122.4632 -999 -999 152 5
9:50 PM 47.5107 -122.4632 -999 -999 134 7
9:49 PM 47.5107 -122.4632 -999 -999 153 7
9:48 PM 47.5107 -122.4632 -999 -999 122 8
9:47 PM 47.5107 -122.4632 -999 -999 140 6
9:46 PM 47.5107 -122.4632 -999 -999 138 6
9:45 PM 47.5107 -122.4632 -999 -999 158 8
9:44 PM 47.5107 -122.4632 -999 -999 126 6
9:43 PM 47.5107 -122.4632 -999 -999 135 9
9:42 PM 47.5107 -122.4632 -999 -999 149 7
9:41 PM 47.5107 -122.4632 -999 -999 127 11
9:40 PM 47.5107 -122.4632 -999 -999 126 8
9:39 PM 47.5107 -122.4632 -999 -999 134 8
9:38 PM 47.5107 -122.4632 -999 -999 126 8
9:37 PM 47.5107 -122.4632 -999 -999 136 9
9:36 PM 47.5107 -122.4632 -999 -999 137 8
9:35 PM 47.5107 -122.4632 -999 -999 139 10
9:34 PM 47.5107 -122.4632 -999 -999 120 10
9:33 PM 47.5107 -122.4632 -999 -999 160 10
9:32 PM 47.5107 -122.4632 -999 -999 133 11
9:31 PM 47.5107 -122.4632 -999 -999 123 8
9:30 PM 47.5107 -122.4632 -999 -999 140 6
9:29 PM 47.5107 -122.4632 -999 -999 135 6
9:28 PM 47.5107 -122.4632 -999 -999 120 5
9:27 PM 47.5107 -122.4632 -999 -999 133 5
9:26 PM 47.5107 -122.4632 -999 -999 132 6
9:25 PM 47.5107 -122.4632 -999 -999 139 5
9:24 PM 47.5107 -122.4632 -999 -999 148 5
9:23 PM 47.5107 -122.4632 -999 -999 146 6
9:22 PM 47.5107 -122.4632 -999 -999 154 6
9:21 PM 47.5107 -122.4632 -999 -999 139 5
9:20 PM 47.5107 -122.4632 -999 -999 137 6
9:19 PM 47.5107 -122.4632 -999 -999 128 4
9:18 PM 47.5107 -122.4632 -999 -999 150 4
9:17 PM 47.5107 -122.4632 -999 -999 124 4
9:16 PM 47.5107 -122.4632 -999 -999 151 4
9:15 PM 47.5107 -122.4632 -999 -999 154 5
9:14 PM 47.5107 -122.4632 -999 -999 143 5
9:13 PM 47.5107 -122.4632 -999 -999 126 5
9:12 PM 47.5107 -122.4632 -999 -999 130 6
9:11 PM 47.5107 -122.4632 -999 -999 127 5
9:10 PM 47.5107 -122.4632 -999 -999 134 5
9:09 PM 47.5107 -122.4632 -999 -999 129 5
9:08 PM 47.5107 -122.4632 -999 -999 146 5
9:07 PM 47.5107 -122.4632 -999 -999 145 7
9:06 PM 47.5107 -122.4632 -999 -999 134 8
9:05 PM 47.5107 -122.4632 -999 -999 130 7
9:04 PM 47.5107 -122.4632 -999 -999 148 5
9:03 PM 47.5107 -122.4632 -999 -999 137 5
9:02 PM 47.5108 -122.4633 -999 -999 134 5
9:01 PM 47.5107 -122.4632 -999 -999 138 6
9:00 PM 47.5107 -122.4632 -999 -999 140 7
8:59 PM 47.5107 -122.4632 -999 -999 125 7
8:58 PM 47.5107 -122.4632 -999 -999 127 7
8:57 PM 47.5107 -122.4632 -999 -999 136 7
8:56 PM 47.5107 -122.4632 -999 -999 149 6
8:55 PM 47.5107 -122.4632 -999 -999 128 7
8:54 PM 47.5107 -122.4632 -999 -999 128 6
8:53 PM 47.5107 -122.4632 -999 -999 153 6
8:52 PM 47.5107 -122.4632 -999 -999 143 7
8:51 PM 47.5107 -122.4632 -999 -999 134 8
8:50 PM 47.5107 -122.4632 -999 -999 135 7
8:49 PM 47.5107 -122.4632 -999 -999 126 9
8:48 PM 47.5107 -122.4632 -999 -999 140 7
8:47 PM 47.5107 -122.4632 -999 -999 129 7
8:46 PM 47.5107 -122.4632 -999 -999 133 9
8:45 PM 47.5107 -122.4632 -999 -999 124 7
8:44 PM 47.5107 -122.4632 -999 -999 133 9
8:43 PM 47.5107 -122.4632 -999 -999 132 6
8:42 PM 47.5107 -122.4632 -999 -999 125 5
8:41 PM 47.5107 -122.4632 -999 -999 129 5
8:40 PM 47.5107 -122.4632 -999 -999 136 6
8:39 PM 47.5107 -122.4632 -999 -999 108 8
8:38 PM 47.5107 -122.4632 -999 -999 130 8
8:37 PM 47.5107 -122.4632 -999 -999 126 6
8:36 PM 47.5107 -122.4632 -999 -999 139 5
8:35 PM 47.5107 -122.4632 -999 -999 121 7
8:34 PM 47.5107 -122.4633 -999 -999 123 6
8:33 PM 47.5107 -122.4632 -999 -999 103 5
8:32 PM 47.5107 -122.4632 -999 -999 106 3
8:31 PM 47.5107 -122.4632 -999 -999 111 5
8:30 PM 47.5107 -122.4632 -999 -999 110 3
8:29 PM 47.5107 -122.4632 -999 -999 120 3
8:28 PM 47.5107 -122.4632 -999 -999 119 4
8:27 PM 47.5107 -122.4632 -999 -999 114 5
8:26 PM 47.5107 -122.4632 -999 -999 104 6
8:25 PM 47.5107 -122.4632 -999 -999 109 4
8:24 PM 47.5107 -122.4632 -999 -999 127 3
8:23 PM 47.5107 -122.4632 -999 -999 157 2
8:22 PM 47.5107 -122.4632 -999 -999 144 2
8:21 PM 47.5107 -122.4632 -999 -999 147 4
8:20 PM 47.5107 -122.4632 -999 -999 97 5
8:19 PM 47.5107 -122.4632 -999 -999 120 5
8:18 PM 47.5107 -122.4632 -999 -999 97 4
8:17 PM 47.5107 -122.4632 -999 -999 111 5
8:16 PM 47.5107 -122.4632 -999 -999 135 4
8:15 PM 47.5107 -122.4632 -999 -999 134 5
8:14 PM 47.5107 -122.4632 -999 -999 138 6
8:13 PM 47.5107 -122.4632 -999 -999 150 6
8:12 PM 47.5107 -122.4632 -999 -999 131 4
8:11 PM 47.5107 -122.4632 -999 -999 111 6
8:10 PM 47.5107 -122.4632 -999 -999 126 6
8:09 PM 47.5107 -122.4632 -999 -999 144 6
8:08 PM 47.5107 -122.4633 -999 -999 118 6
8:07 PM 47.5107 -122.4632 -999 -999 118 3
8:06 PM 47.5107 -122.4632 -999 -999 166 4
8:05 PM 47.5107 -122.4632 -999 -999 162 5
8:04 PM 47.5107 -122.4632 -999 -999 125 6
8:03 PM 47.5107 -122.4632 -999 -999 99 5
8:02 PM 47.5107 -122.4632 -999 -999 121 6
8:01 PM 47.5107 -122.4632 -999 -999 129 5
8:00 PM 47.5107 -122.4632 -999 -999 117 8
7:59 PM 47.5107 -122.4632 -999 -999 143 4
7:58 PM 47.5107 -122.4632 -999 -999 140 3
7:57 PM 47.5107 -122.4632 -999 -999 132 3
7:56 PM 47.5107 -122.4632 -999 -999 148 6
7:55 PM 47.5107 -122.4632 -999 -999 145 6
7:54 PM 47.5107 -122.4632 -999 -999 91 4
7:53 PM 47.5107 -122.4632 -999 -999 123 6
7:52 PM 47.5107 -122.4632 -999 -999 102 7
7:51 PM 47.5107 -122.4632 -999 -999 142 5
7:50 PM 47.5107 -122.4632 -999 -999 161 6
7:49 PM 47.5107 -122.4632 -999 -999 164 8
7:48 PM 47.5107 -122.4632 -999 -999 143 5
7:47 PM 47.5107 -122.4632 -999 -999 167 5
7:46 PM 47.5107 -122.4632 -999 -999 125 5
7:45 PM 47.5107 -122.4632 -999 -999 111 5
7:44 PM 47.5107 -122.4632 -999 -999 131 7
7:43 PM 47.5107 -122.4632 -999 -999 127 6
7:42 PM 47.5107 -122.4632 -999 -999 135 7
7:41 PM 47.5107 -122.4632 -999 -999 145 7
7:40 PM 47.5107 -122.4632 -999 -999 116 6
7:39 PM 47.5107 -122.4632 -999 -999 129 6
7:38 PM 47.5107 -122.4632 -999 -999 106 8
7:37 PM 47.5107 -122.4632 -999 -999 137 7
7:36 PM 47.5107 -122.4632 -999 -999 136 6
7:35 PM 47.5107 -122.4632 -999 -999 112 7
7:34 PM 47.5107 -122.4632 -999 -999 125 9
7:33 PM 47.5107 -122.4632 -999 -999 115 9
7:32 PM 47.5107 -122.4632 -999 -999 107 7
7:31 PM 47.5107 -122.4632 -999 -999 140 8
7:30 PM 47.5107 -122.4632 -999 -999 136 5